Regional Weather Roundup
Issued by NWS

Home | Current Version | Previous Version | Text Only | Print | Product List | Glossary On
Versions: 1 2 3 4 5 6 7 8 9 10 11 12 13 14 15 16 17 18 19 20 21 22 23 24 25 26 27 28 29 30 31 32 33 34 35 36 37 38 39 40 41 42 43 44 45 46 47 48 49 50
655
ASUS43 KDTX 251201
RWRMI
MICHIGAN HOURLY REGIONAL WEATHER ROUNDUP
NATIONAL WEATHER SERVICE DETROIT/PONTIAC MI
700 AM EST SUN FEB 25 2018

NOTE: "FAIR" INDICATES FEW OR NO CLOUDS BELOW 12,000 FEET WITH NO
SIGNIFICANT WEATHER AND/OR OBSTRUCTION TO VISIBILITY.

MIZ047>049-052>055-059>063-066>070-074>076-081>083-251300-
SOUTHEAST LOWER MICHIGAN

CITY           SKY/WX    TMP DP  RH WIND       PRES   REMARKS
ADRIAN         MOCLDY    42  34  73 W21G33    29.69R
6HR MIN TEMP:  35; 6HR MAX TEMP:  49; 6HR PCP:  0.05;

ALMA           CLOUDY    37  33  84 SW25G41   29.56R WCI  25
6HR MIN TEMP:  34; 6HR MAX TEMP:  46;

ANN ARBOR      MOCLDY    43  37  79 SW26G37   29.62R
BAD AXE        CLOUDY    45  45  99 SW16G25   29.43R
6HR MIN TEMP:  34; 6HR MAX TEMP:  45;

CARO           CLOUDY    45  40  85 SW26G36   29.48R
DETROIT CITY   MOCLDY    50  44  80 SW21G35   29.56R
6HR MIN TEMP:  36; 6HR MAX TEMP:  50; 6HR PCP:  0.03;

DETROIT        MOCLDY    49  42  77 SW25G36   29.60R
6HR MIN TEMP:  38; 6HR MAX TEMP:  50; 6HR PCP:  0.06;

FLINT          CLOUDY    42  36  79 W25G41    29.56R
6HR MIN TEMP:  38; 6HR MAX TEMP:  48; 6HR PCP:  0.01;

GROSSE ILE     FAIR      48  40  72 W21G35    29.61R
6HR MIN TEMP:  37; 6HR MAX TEMP:  49; 6HR PCP:  0.01;

HILLSDALE      CLOUDY    37  32  81 SW16G31   29.67R WCI  28
HOWELL         CLOUDY    40  36  84 W24G32    29.59R WCI  30
6HR MIN TEMP:  37; 6HR MAX TEMP:  48;


CITY           SKY/WX    TMP DP  RH WIND       PRES   REMARKS
JACKSON        MOCLDY    38  33  82 SW22G36   29.65R WCI  27
6HR MIN TEMP:  38; 6HR MAX TEMP:  50;

LAMBERTVILLE   CLOUDY    45  37  74 W16G30    29.68R
6HR MIN TEMP:  36; 6HR MAX TEMP:  53;

LANSING        CLOUDY    37  31  78 W32G46    29.62R WCI  24
6HR MIN TEMP:  37; 6HR MAX TEMP:  49; 6HR PCP:  0.01;

LAPEER         CLOUDY    48  44  86 W29G40    29.51R
6HR MIN TEMP:  37; 6HR MAX TEMP:  48;

MASON          MOCLDY    39  31  72 W17G30    29.62R WCI  30
6HR MIN TEMP:  39; 6HR MAX TEMP:  50;

MT. CLEMENS    FAIR      47  47 100 SW17G29   29.52R
6HR MIN TEMP:  37; 6HR MAX TEMP:  47; 6HR PCP:  0.07;

PONTIAC        CLOUDY    46  38  73 SW26G44   29.55R
6HR MIN TEMP:  36; 6HR MAX TEMP:  48; 6HR PCP:  0.02;

PORT HOPE        N/A     45  43  93 S9G18     29.38F
6HR MIN TEMP:  34; 6HR MAX TEMP:  45; 6HR PCP:  0.09;

PORT HURON     CLOUDY    46  45  93 SW13G18   29.51R
TRI CITIES     CLOUDY    42  36  79 SW26G36   29.49R
6HR MIN TEMP:  38; 6HR MAX TEMP:  48; 6HR PCP:  0.06;

MIDLAND        CLOUDY    41  35  81 SW23G36   29.49R
6HR MIN TEMP:  35; 6HR MAX TEMP:  45; 6HR PCP:  0.01;

TROY           MOCLDY    48  46  91 SW14G26   29.58R
SAGINAW HB     CLOUDY    41  37  87 SW35G44   29.50R
$$
MIZ043>046-050>051-056>058-064>065-071>073-077>080-251300-
SOUTHWEST LOWER MICHIGAN

CITY           SKY/WX    TMP DP  RH WIND       PRES   REMARKS
BATTLE CREEK   CLOUDY    37  32  82 W23G35    29.65R WCI  26
                                      6HR PCP:  0.03;

BENTON HARBOR  CLOUDY    35  28  75 SW21G30   29.74R WCI  24
6HR MIN TEMP:  35; 6HR MAX TEMP:  50; 6HR PCP:  0.01;

BIG RAPIDS     CLOUDY    35  29  79 W21G33    29.51R WCI  24
6HR MIN TEMP:  32; 6HR MAX TEMP:  40; 6HR PCP:  0.08;

COLDWATER      CLOUDY    38  34  85 SW20G30   29.71R WCI  28
6HR MIN TEMP:  38; 6HR MAX TEMP:  52;

FREMONT        CLOUDY    34  27  74 W23G32    29.58R WCI  22
6HR MIN TEMP:  34; 6HR MAX TEMP:  42;

HOLLAND        CLOUDY    35  29  78 W31G46    29.68R WCI  22
6HR MIN TEMP:  35; 6HR MAX TEMP:  49; 6HR PCP:  0.12;

GRAND RAPIDS   CLOUDY    36  34  92 W29G46    29.64R WCI  23
6HR MIN TEMP:  36; 6HR MAX TEMP:  48; 6HR PCP:  0.09;

IONIA          CLOUDY    36  32  84 W23G37    29.61R WCI  25
6HR MIN TEMP:  36; 6HR MAX TEMP:  48;

KALAMAZOO      CLOUDY    37  29  72 SW22G35   29.71R WCI  26
6HR MIN TEMP:  37; 6HR MAX TEMP:  51; 6HR PCP:  0.03;

LUDINGTON      CLOUDY    34  28  77 W22G37    29.53R WCI  22
6HR MIN TEMP:  34; 6HR MAX TEMP:  41; 6HR PCP:  0.17;

MARSHALL       CLOUDY    36  31  82 SW23G36   29.69R WCI  24
MOUNT PLEASANT CLOUDY    39  33  78 W20G41    29.50R WCI  30
6HR MIN TEMP:  34; 6HR MAX TEMP:  43; 6HR PCP:  0.05;

MUSKEGON       CLOUDY    35  26  69 SW28G39   29.63R WCI  22
6HR MIN TEMP:  35; 6HR MAX TEMP:  46; 6HR PCP:  0.19;

SOUTH HAVEN    CLOUDY    36  29  78 SW23G32   29.72R WCI  24
$$
MIZ016>042-251300-
NORTHERN LOWER MICHIGAN

CITY           SKY/WX    TMP DP  RH WIND       PRES   REMARKS
ALPENA         CLOUDY    37  36  96 S15       29.32F WCI  28
6HR MIN TEMP:  33; 6HR MAX TEMP:  37; 6HR PCP:  0.21;

BEAVER ISLAND  CLOUDY    36  35  96 SW15G22   29.28R WCI  26
6HR MIN TEMP:  32; 6HR MAX TEMP:  36;

BELLAIRE       CLOUDY    38  37  94 SW12G22   29.37R WCI  31
6HR MIN TEMP:  33; 6HR MAX TEMP:  38;

CADILLAC       CLOUDY    33  31  92 W17G35    29.42R WCI  23
CHARLEVOIX     CLOUDY    37  37 100 SW24G36   29.35R WCI  26
6HR MIN TEMP:  33; 6HR MAX TEMP:  38;

FRANKFORT      CLOUDY    37  30  78 SW17G25   29.45R WCI  27
GAYLORD        LGT RAIN  36  36 100 SW26G33   29.30R FOG     WCI  24
6HR MIN TEMP:  30; 6HR MAX TEMP:  36; 6HR PCP:  0.15;

GRAYLING       CLOUDY    37  36  93 W17G29    29.35R WCI  28
6HR MIN TEMP:  31; 6HR MAX TEMP:  37; 6HR PCP:  0.33;

HARBOR SPRINGS LGT RAIN  37  37  99 SW15G22   29.29S WCI  28
HOUGHTON LAKE  CLOUDY    38  35  89 SW21G33   29.39R WCI  28
6HR MIN TEMP:  33; 6HR MAX TEMP:  38; 6HR PCP:  0.17;

MANISTEE       CLOUDY    35  28  75 W21G32    29.49R WCI  24
OSCODA         MIX PCPN  40  40  97 SW25G33   29.35S WCI  30
6HR MIN TEMP:  33; 6HR MAX TEMP:  40; 6HR PCP:  0.17;

PELLSTON       LGT RAIN  36  36 100 S9        29.29S FOG     WCI  29
6HR MIN TEMP:  32; 6HR MAX TEMP:  36; 6HR PCP:  0.45;

ROGERS CITY    CLOUDY    35  33  94 S16       29.30F WCI  25
TRAVERSE CITY  CLOUDY    39  32  76 SW14G36   29.38R WCI  31
6HR MIN TEMP:  35; 6HR MAX TEMP:  41; 6HR PCP:  0.21;

$$
MIZ007>008-015-251300-
EASTERN UPPER MICHIGAN

CITY           SKY/WX    TMP DP  RH WIND       PRES   REMARKS
KINROSS        LGT SNOW  32  32 100 SE24      29.26F FOG     WCI  19
6HR MIN TEMP:  28; 6HR MAX TEMP:  32; 6HR PCP: TRACE;

MACKINAC ISLAN MIX PCPN  32  32 100 S10G20    29.27S WCI  24
6HR MIN TEMP:  31; 6HR MAX TEMP:  32; 6HR PCP:  0.24;

NEWBERRY       LGT SNOW  32  31  97 S9        29.22F WCI  24
6HR MIN TEMP:  30; 6HR MAX TEMP:  32; 6HR PCP:  0.17;

S. S. MARIE    SNOW      34  32  92 SE15G22   29.27F VSB 1/2 WCI  24
6HR MIN TEMP:  32; 6HR MAX TEMP:  34; 6HR PCP:  0.51;

MUNISING         N/A     34  34 100 S10       29.21F WCI  26
6HR MIN TEMP:  31; 6HR MAX TEMP:  34; 6HR PCP:  0.39;

$$
MIZ004>006-011>014-085-251300-
CENTRAL UPPER MICHIGAN

CITY           SKY/WX    TMP DP  RH WIND       PRES   REMARKS
MANISTIQUE     CLOUDY    32  31  96 SW9G16    29.25R WCI  24
6HR MIN TEMP:  30; 6HR MAX TEMP:  32; 6HR PCP:  0.24;

ESCANABA       CLOUDY    32  31  96 SW15G22   29.29R WCI  22
6HR MIN TEMP:  31; 6HR MAX TEMP:  32; 6HR PCP:  0.21;

MENOMINEE      LGT RAIN  32  31  96 W15G32    29.37R WCI  22
6HR MIN TEMP:  32; 6HR MAX TEMP:  33; 6HR PCP:  0.27;

SAWYER-GWINN   FLURRIES  28  27  93 SW12      29.21S WCI  18
$$
MIZ001>003-009>011-084-251300-
WESTERN UPPER MICHIGAN

CITY           SKY/WX    TMP DP  RH WIND       PRES   REMARKS
IRON MOUNTAIN  CLOUDY    32  27  81 W13G23    29.26R WCI  22
6HR MIN TEMP:  29; 6HR MAX TEMP:  33; 6HR PCP:  0.07;

HOUGHTON       LGT SNOW  29  25  85 SW7       29.17S FOG     WCI  22
6HR MIN TEMP:  28; 6HR MAX TEMP:  29; 6HR PCP:  0.10;

COPPER HARBOR    N/A     31  28  89 SW9       29.16F WCI  23
6HR MIN TEMP:  30; 6HR MAX TEMP:  31; 6HR PCP:  0.68;

IRONWOOD       LGT SNOW  26  23  88 W23G32    29.29R FOG     WCI  11
6HR MIN TEMP:  26; 6HR MAX TEMP:  29; 6HR PCP:  0.04;

$$

ABBREVIATIONS USED IN REMARKS
   TC - TEMPERATURE IN CELSIUS
  WCI - WIND CHILL INDEX
   HX - HEAT INDEX
  VSB - VISIBILITY





USA.gov is the U.S. government's official web portal to all federal, state and local government web resources and services.